Location: Chilton Park
(37.7711°N, 100.0276°W)
Time: 09:36:18
(UTC+00:00)

Cosmos 2227 Rocket - Pass Details

Date: 12 July 2022
Orbit: 840 x 844 km, 71.0° (Epoch: 14 August)

Event Time Altitude Azimuth Distance (km) Brightness Sun altitude
Exits shadow 06:31:22 21° 80° (E) 1,797 3.9 -30.2°
Drops below altitude 10° 06:34:20 10° 50° (NE) 2,467 5.0 -30.2°
Sets 06:37:13 0° 37° (NE) 3,406 6.0 -30.2°
